IRIDIUM 33 DEB, 34492

Orbit data source: Space-Track

IRIDIUM 33 DEB, 34492 is space debris in LEO originally from a launch on Sun, 14 Sep 1997 UTC launched from the Tyuratam Missile And Space Complex (TTMTR). The debris from Iridium 33, an American commercial communications satellite, has been tracked extensively since its accidental collision with the defunct Russian satellite Cosmos 2251 in 2009. This event, occurring at high speed in low Earth orbit (LEO), generated thousands of pieces of space debris, significantly increasing the risk of further collisions. The Iridium 33 debris cloud has impacted space traffic management and orbital debris mitigation strategies, making it a subject of ongoing study in space situational awareness.

Loading next visibility...
Identifier
34492, 1997-051GH
Orbit
LEO
Country
Flag of USUS
Related business
Manufacturer
Unknown
Mission
Spacecraft
Bus & Motor
Unknown
Mass
Unknown
Launch date (UTC)
1997-09-14 (28 years ago)
Launch vehicle
Unknown
Launch site
Tyuratam Missile And Space Complex (TTMTR)
Object type
Payload
Rocket body
Debris
Shape & HBR
Unknown shape, 0.1 m
Radar Cross Section
Small (<0.1 m²)

Expand to show TLE details & history
Last TLE update: 2 days ago

TLE from 2 days ago
0 IRIDIUM 33 DEB
1 34492U 97051GH  25353.44812902  .00006332  00000-0  22012-2 0  9995
2 34492  86.4707 331.9164 0188646 216.3823 273.3437 14.25846982851542
Epoch: 2025-12-19T10:45Z
TLE epoch observation values (Epoch: 2025-12-19T10:45:18.347Z)
Latitude
52.39204°
Longitude
-102.26706°
Altitude
808.89 km
Speed
7.457 km/s
True Right ascension
09h 49m 23s
True Declination
52° 13' 37"
Sunlit
Object was in full shadow at epoch
Visualization orbit readout
Latitude
Unknown
Longitude
Unknown
Altitude
Unknown
Speed
Unknown
Apparent Right ascension
Unknown
Apparent Declination
Unknown
Sunlit
N/A
Visualization observer readout
Local Sidereal Time
13:06:05
Azimuth
Unknown
Elevation
Unknown
Doppler factor
Unknown
Orbital elements
Apogee altitude
938.082 km
Perigee altitude
667.158 km
Semi-major axis
7,180.757 km
Eccentricity
0.01886
Inclination
86.4707°
RAAN
331.9164°
Arg. of periapsis
216.3823°
True anomaly
271.1832°
Mean anomaly
273.3437°
Eccentric anomaly
272.26368°
Mean motion
3.56687 °/min
Orbital period
100.93 mins
BSTAR
0.0022012
Loading maneuver chart data...
Computing Atmospheric mass density...

Documentation

Showing up to 5 results
|